• In Österreich
  • Länderverzeichnis
  • Für 7 Tage
  • Wassertemperatur
  • Satellitenkarten
  • Wetterkarte
  • News
  • Widgets
  • user-avatar
    Anmelden

    Stündliche Wetter Port Said

    Heute, 21 Februar, Mittwoch

    Zeit Temperatur Niederschläge Wind Luftdruck Luftfeuchtigkeit
    00:00 +16°C° 0 mm 3 m/S 758 mmHg 70%
    01:00 +16°C° 0 mm 3 m/S 758 mmHg 69%
    02:00 +14°C° 0 mm 3 m/S 758 mmHg 69%
    03:00 +14°C° 0 mm 3 m/S 757 mmHg 67%
    04:00 +14°C° 0 mm 4 m/S 757 mmHg 65%
    05:00 +14°C° 0 mm 4 m/S 757 mmHg 64%
    06:00 +15°C° 0 mm 4 m/S 757 mmHg 59%
    07:00 +17°C° 0 mm 4 m/S 757 mmHg 54%
    08:00 +17°C° 0 mm 4 m/S 757 mmHg 49%
    09:00 +19°C° 0 mm 4 m/S 757 mmHg 42%
    10:00 +22°C° 0 mm 5 m/S 757 mmHg 35%
    11:00 +25°C° 0 mm 5 m/S 757 mmHg 28%
    12:00 +25°C° 0 mm 5 m/S 756 mmHg 27%
    13:00 +26°C° 0 mm 5 m/S 756 mmHg 26%
    14:00 +27°C° 0 mm 5 m/S 756 mmHg 25%
    15:00 +25°C° 0 mm 5 m/S 756 mmHg 30%
    16:00 +23°C° 0 mm 5 m/S 756 mmHg 34%
    17:00 +22°C° 0 mm 6 m/S 756 mmHg 39%
    18:00 +21°C° 0,1 mm 6 m/S 756 mmHg 42%
    19:00 +20°C° 0,1 mm 6 m/S 757 mmHg 44%
    20:00 +20°C° 0,1 mm 6 m/S 757 mmHg 47%
    21:00 +19°C° 0,1 mm 6 m/S 757 mmHg 50%
    22:00 +19°C° 0,1 mm 5 m/S 757 mmHg 53%
    23:00 +17°C° 0,1 mm 5 m/S 757 mmHg 56%

    Morgen, 22 Februar, Donnerstag

    Zeit Temperatur Niederschläge Wind Luftdruck Luftfeuchtigkeit
    00:00 +17°C° 0 mm 5 m/S 757 mmHg 58%
    01:00 +17°C° 0 mm 4 m/S 757 mmHg 61%
    02:00 +17°C° 0 mm 4 m/S 757 mmHg 64%
    03:00 +16°C° 0 mm 3 m/S 757 mmHg 65%
    04:00 +16°C° 0 mm 3 m/S 757 mmHg 67%
    05:00 +14°C° 0 mm 3 m/S 757 mmHg 69%
    06:00 +16°C° 0 mm 3 m/S 757 mmHg 67%
    07:00 +16°C° 0 mm 3 m/S 757 mmHg 64%
    08:00 +17°C° 0 mm 3 m/S 758 mmHg 62%
    09:00 +18°C° 0 mm 3 m/S 758 mmHg 56%
    10:00 +20°C° 0 mm 2 m/S 758 mmHg 49%
    11:00 +23°C° 0 mm 2 m/S 758 mmHg 43%
    12:00 +23°C° 0 mm 2 m/S 757 mmHg 40%
    13:00 +24°C° 0 mm 2 m/S 757 mmHg 37%
    14:00 +25°C° 0 mm 2 m/S 757 mmHg 34%
    15:00 +24°C° 0 mm 3 m/S 757 mmHg 39%
    16:00 +22°C° 0 mm 4 m/S 757 mmHg 43%
    17:00 +22°C° 0 mm 5 m/S 757 mmHg 47%
    18:00 +20°C° 0 mm 4 m/S 757 mmHg 54%
    19:00 +19°C° 0 mm 4 m/S 757 mmHg 60%
    20:00 +18°C° 0 mm 3 m/S 758 mmHg 67%
    21:00 +18°C° 0 mm 3 m/S 758 mmHg 69%
    22:00 +17°C° 0 mm 3 m/S 758 mmHg 71%
    23:00 +17°C° 0 mm 2 m/S 758 mmHg 73%

    übermorgen, 23 Februar, Freitag

    Zeit Temperatur Niederschläge Wind Luftdruck Luftfeuchtigkeit
    00:00 +17°C° 0 mm 2 m/S 758 mmHg 75%
    01:00 +17°C° 0 mm 2 m/S 758 mmHg 76%
    02:00 +16°C° 0 mm 2 m/S 758 mmHg 77%
    03:00 +16°C° 0 mm 2 m/S 758 mmHg 78%
    04:00 +16°C° 0 mm 2 m/S 758 mmHg 79%
    05:00 +15°C° 0 mm 2 m/S 757 mmHg 80%
    06:00 +16°C° 0 mm 2 m/S 758 mmHg 77%
    07:00 +18°C° 0 mm 1 m/S 758 mmHg 74%
    08:00 +18°C° 0 mm 1 m/S 758 mmHg 71%
    09:00 +19°C° 0 mm 2 m/S 758 mmHg 61%
    10:00 +20°C° 0 mm 2 m/S 758 mmHg 52%
    11:00 +23°C° 0 mm 2 m/S 758 mmHg 43%
    12:00 +22°C° 0 mm 3 m/S 758 mmHg 42%
    13:00 +23°C° 0 mm 4 m/S 757 mmHg 40%
    14:00 +23°C° 0 mm 4 m/S 757 mmHg 39%
    15:00 +22°C° 0 mm 5 m/S 757 mmHg 43%
    16:00 +21°C° 0 mm 5 m/S 757 mmHg 48%
    17:00 +20°C° 0 mm 6 m/S 757 mmHg 53%
    18:00 +19°C° 0 mm 5 m/S 757 mmHg 57%
    19:00 +17°C° 0 mm 5 m/S 758 mmHg 62%
    20:00 +17°C° 0 mm 5 m/S 758 mmHg 67%
    21:00 +17°C° 0 mm 4 m/S 758 mmHg 68%
    22:00 +17°C° 0 mm 4 m/S 758 mmHg 70%
    23:00 +17°C° 0 mm 4 m/S 758 mmHg 72%

    24 Februar, Samstag

    Zeit Temperatur Niederschläge Wind Luftdruck Luftfeuchtigkeit
    00:00 +17°C° 0 mm 4 m/S 758 mmHg 72%
    01:00 +16°C° 0 mm 3 m/S 758 mmHg 73%
    02:00 +16°C° 0 mm 3 m/S 757 mmHg 73%
    03:00 +16°C° 0 mm 3 m/S 758 mmHg 73%
    04:00 +16°C° 0 mm 3 m/S 758 mmHg 73%
    05:00 +15°C° 0 mm 4 m/S 758 mmHg 74%
    06:00 +17°C° 0 mm 4 m/S 758 mmHg 70%
    07:00 +17°C° 0 mm 3 m/S 759 mmHg 67%
    08:00 +18°C° 0 mm 3 m/S 759 mmHg 64%
    09:00 +19°C° 0 mm 3 m/S 759 mmHg 57%
    10:00 +20°C° 0 mm 3 m/S 759 mmHg 50%
    11:00 +21°C° 0 mm 3 m/S 759 mmHg 43%
    12:00 +22°C° 0 mm 3 m/S 759 mmHg 41%
    13:00 +22°C° 0 mm 3 m/S 758 mmHg 39%
    14:00 +23°C° 0 mm 4 m/S 758 mmHg 37%
    15:00 +22°C° 0 mm 4 m/S 758 mmHg 40%
    16:00 +21°C° 0 mm 4 m/S 758 mmHg 42%
    17:00 +20°C° 0 mm 4 m/S 758 mmHg 45%
    18:00 +19°C° 0 mm 4 m/S 759 mmHg 51%
    19:00 +18°C° 0 mm 3 m/S 759 mmHg 57%
    20:00 +17°C° 0 mm 3 m/S 760 mmHg 63%
    21:00 +17°C° 0 mm 3 m/S 760 mmHg 64%
    22:00 +16°C° 0 mm 2 m/S 760 mmHg 66%
    23:00 +16°C° 0 mm 2 m/S 760 mmHg 68%

    25 Februar, Sonntag

    Zeit Temperatur Niederschläge Wind Luftdruck Luftfeuchtigkeit
    00:00 +16°C° 0 mm 2 m/S 760 mmHg 69%
    01:00 +15°C° 0 mm 2 m/S 759 mmHg 70%
    02:00 +15°C° 0 mm 1 m/S 759 mmHg 71%
    03:00 +15°C° 0 mm 1 m/S 759 mmHg 72%
    04:00 +15°C° 0 mm 2 m/S 759 mmHg 72%
    05:00 +14°C° 0 mm 2 m/S 759 mmHg 73%
    06:00 +15°C° 0 mm 2 m/S 759 mmHg 68%
    07:00 +16°C° 0 mm 3 m/S 760 mmHg 64%
    08:00 +17°C° 0 mm 3 m/S 760 mmHg 59%
    09:00 +19°C° 0 mm 2 m/S 760 mmHg 49%
    10:00 +20°C° 0 mm 2 m/S 759 mmHg 39%
    11:00 +23°C° 0 mm 2 m/S 759 mmHg 28%
    12:00 +24°C° 0 mm 2 m/S 759 mmHg 26%
    13:00 +25°C° 0 mm 2 m/S 758 mmHg 24%
    14:00 +25°C° 0 mm 1 m/S 758 mmHg 22%
    15:00 +25°C° 0 mm 2 m/S 758 mmHg 24%
    16:00 +24°C° 0 mm 2 m/S 758 mmHg 25%
    17:00 +24°C° 0 mm 2 m/S 758 mmHg 27%
    18:00 +22°C° 0 mm 3 m/S 758 mmHg 33%
    19:00 +21°C° 0 mm 3 m/S 758 mmHg 38%
    20:00 +20°C° 0 mm 3 m/S 758 mmHg 44%
    21:00 +19°C° 0 mm 3 m/S 758 mmHg 48%
    22:00 +19°C° 0 mm 3 m/S 758 mmHg 53%
    23:00 +18°C° 0 mm 2 m/S 758 mmHg 57%

    26 Februar, Montag

    Zeit Temperatur Niederschläge Wind Luftdruck Luftfeuchtigkeit
    00:00 +18°C° 0 mm 2 m/S 757 mmHg 58%
    01:00 +18°C° 0 mm 2 m/S 757 mmHg 59%
    02:00 +18°C° 0 mm 2 m/S 757 mmHg 61%
    03:00 +17°C° 0 mm 2 m/S 757 mmHg 64%
    04:00 +16°C° 0 mm 2 m/S 757 mmHg 67%
    05:00 +16°C° 0 mm 2 m/S 757 mmHg 70%
    06:00 +16°C° 0 mm 2 m/S 757 mmHg 69%
    07:00 +18°C° 0 mm 1 m/S 757 mmHg 68%
    08:00 +18°C° 0 mm 1 m/S 757 mmHg 66%
    09:00 +19°C° 0 mm 1 m/S 757 mmHg 59%
    10:00 +21°C° 0 mm 1 m/S 757 mmHg 52%
    11:00 +22°C° 0 mm 1 m/S 757 mmHg 45%
    12:00 +23°C° 0 mm 1 m/S 756 mmHg 41%
    13:00 +24°C° 0 mm 2 m/S 756 mmHg 37%
    14:00 +26°C° 0 mm 2 m/S 756 mmHg 33%
    15:00 +25°C° 0 mm 3 m/S 755 mmHg 34%
    16:00 +25°C° 0 mm 4 m/S 755 mmHg 34%
    17:00 +25°C° 0 mm 4 m/S 755 mmHg 35%
    18:00 +23°C° 0 mm 4 m/S 755 mmHg 35%
    19:00 +22°C° 0 mm 4 m/S 755 mmHg 36%
    20:00 +22°C° 0 mm 4 m/S 755 mmHg 37%
    21:00 +21°C° 0,3 mm 4 m/S 755 mmHg 45%
    22:00 +19°C° 0,3 mm 4 m/S 756 mmHg 53%
    23:00 +18°C° 0,3 mm 4 m/S 756 mmHg 61%
    Mehr zeigen